#timestamp,LO_Frequency,Hit,StdDev 
1647075615.1,286046981.8,N
1647075616.0,286046981.8,N
1647075635.8,286046977.4,N
1647075655.7,286046977.0,N
1647075675.5,286046972.9,N
1647075695.3,286046970.1,N
1647075715.2,286046969.1,N
1647075735.0,286046965.0,N
1647075735.9,286046965.0,N
1647075755.7,286046966.0,N
1647075775.6,286046966.2,N
1647075795.4,286046966.8,N
1647075815.3,286046960.7,N
1647075835.1,286046969.6,N
1647075836.0,286046969.6,N
1647075855.8,286046967.4,N
1647075875.7,286046966.9,N
1647075895.5,286046962.1,Y
1647075915.4,286046984.8,P
1647075935.2,286046985.5,P
1647075955.0,286046986.3,P
1647075955.9,286046986.3,Y
1647075975.8,286046998.9,P
1647075995.6,286046993.8,N
1647076015.5,286046996.9,N
1647076035.3,286046996.6,N
1647076055.1,286046993.5,N
1647076075.9,286046990.5,N
1647076095.7,286046990.5,N
1647076115.5,286046989.7,N
1647076135.4,286046990.4,N
1647076155.2,286046988.8,N
1647076175.0,286046987.6,N
1647076176.0,286046987.6,N
1647076195.8,286046984.2,Y
1647076215.6,286046992.4,P
1647076235.5,286046992.4,P
1647076255.3,286046991.6,P
1647076275.1,286046990.2,Y
1647076295.9,286047000.8,P
1647076315.7,286047001.7,N
1647076335.6,286046998.7,N
1647076355.4,286047001.5,N
1647076375.2,286047002.7,N
1647076395.1,286047003.0,N
1647076396.0,286047003.0,N
1647076415.8,286047004.0,N
1647076435.6,286047000.6,N
1647076455.5,286047002.0,N
1647076475.3,286046998.7,N
1647076495.2,286046995.5,N
1647076515.9,286046993.3,N
1647076535.7,286046993.7,N
1647076555.6,286046996.6,N
1647076575.4,286047000.1,N
1647076595.2,286046999.6,N
1647076615.1,286046990.3,N
1647076616.0,286046990.3,N
1647076635.8,286046994.4,N
1647076655.7,286046987.5,N
1647076675.5,286046986.3,N
1647076695.3,286046977.3,Y
1647076715.2,286046979.3,P
1647076735.0,286046980.6,N
1647076735.9,286046980.6,N
1647076755.8,286046983.0,N
1647076775.6,286046977.9,Y
1647076795.4,286046993.6,P
1647076815.3,286046992.5,N
1647076835.1,286046991.0,N
1647076855.9,286046988.6,Y
1647076875.7,286046995.9,P
1647076895.5,286046990.3,P
1647076915.4,286046990.2,P
1647076935.2,286046988.1,Y
1647076955.0,286046994.1,P
1647076955.9,286046994.1,P
1647076975.8,286046993.8,P
1647076995.6,286046994.7,Y
1647077015.5,286046999.0,P
1647077035.3,286047000.4,N
1647077055.1,286047003.9,N
1647077075.9,286047002.6,N
1647077095.7,286046996.9,N
1647077115.6,286046998.2,N
1647077135.4,286046997.2,N
1647077155.3,286046990.9,N
1647077175.1,286046985.3,Y
1647077176.0,286046985.3,P
1647077195.8,286046981.8,N
1647077215.7,286046975.7,P
1647077235.5,286046978.3,N
1647077255.3,286046977.1,N
1647077275.2,286046970.9,Y
1647077295.0,286046993.6,P
1647077296.0,286046993.6,N
1647077315.8,286046992.2,N
1647077335.6,286046995.4,N
1647077355.5,286046993.1,N
1647077375.3,286046990.1,N
1647077395.1,286046988.5,N
1647077415.9,286046985.3,Y
1647077435.7,286046993.0,P
1647077455.6,286046991.4,P
1647077475.4,286046990.8,P
1647077495.2,286046992.4,Y
1647077515.1,286046999.1,P
1647077516.0,286046999.1,N
1647077535.8,286046998.8,N
1647077555.7,286047000.9,N
1647077575.5,286046996.4,N
1647077595.3,286046990.3,Y
1647077615.2,286046991.7,P
1647077635.0,286046993.2,N
1647077635.9,286046993.2,N
1647077655.8,286046991.3,Y
1647077675.6,286046994.5,P
1647077695.4,286046990.1,P
1647077715.3,286046985.5,P
1647077735.1,286046990.5,N
1647077755.9,286046991.5,N
1647077775.7,286046983.7,Y
1647077795.5,286046991.4,P
1647077815.4,286046989.9,P
1647077835.2,286046990.0,P
1647077855.1,286046988.5,Y
1647077856.0,286046988.5,P
1647077875.8,286047002.1,N
1647077895.6,286047001.4,N
1647077915.5,286047004.4,N
1647077935.3,286046999.4,N
1647077955.1,286046997.8,N
1647077975.9,286046993.3,N
1647077995.7,286046992.4,N
1647078015.6,286046989.1,N
1647078035.4,286046990.3,N
1647078055.3,286046993.0,N
1647078075.1,286046992.0,N
1647078076.0,286046992.0,N
1647078095.8,286046990.2,N
1647078115.7,286046991.2,N
1647078135.5,286046987.8,N
1647078155.3,286046991.5,N
1647078175.2,286046986.3,N
1647078195.0,286046985.1,N
1647078195.9,286046985.1,N
1647078215.8,286046991.1,N
1647078235.6,286046984.5,N
1647078255.4,286046981.2,Y
1647078275.3,286046987.0,P
1647078295.1,286046984.7,P
1647078315.9,286046983.6,P
1647078335.7,286046980.5,Y
1647078355.5,286046991.9,P
1647078375.4,286046989.9,P
1647078395.2,286046985.9,P
1647078415.0,286046985.5,Y
1647078416.0,286046985.5,P
1647078435.8,286046996.4,N
1647078455.6,286046990.8,N
1647078475.5,286046991.9,N
1647078495.3,286046996.0,N
1647078515.1,286046992.3,N
1647078535.9,286046991.5,N
1647078555.7,286046989.5,Y
1647078575.6,286046993.9,P
1647078595.4,286046996.4,P
1647078615.2,286046994.7,N
1647078635.1,286046997.3,N
1647078636.0,286046997.3,N
1647078655.8,286047001.0,N
1647078675.6,286046998.4,N
1647078695.5,286046999.5,N
1647078715.3,286046994.9,N
1647078735.1,286046993.3,N
1647078755.9,286046990.2,Y
1647078775.7,286046994.6,P
1647078795.6,286046992.9,P
1647078815.4,286046989.8,P
1647078835.2,286046990.2,Y
1647078855.1,286046997.9,P
1647078856.0,286046997.9,N
1647078875.8,286046996.2,N
1647078895.7,286046992.4,Y
1647078915.5,286046998.9,P
1647078935.3,286047000.2,N
1647078955.2,286046999.7,N
1647078975.0,286047005.1,Y
1647078975.9,286047005.1,P
1647078995.8,286047004.2,N
1647079015.6,286047003.1,N
1647079035.4,286047009.5,Y
1647079055.3,286047009.0,P
1647079075.1,286047011.9,P
1647079095.8,286047010.2,N
1647079115.7,286047012.2,Y
1647079135.5,286046996.5,P
1647079155.4,286047000.4,N
1647079175.2,286047000.2,N
1647079195.0,286047005.4,N
1647079195.9,286047005.4,N
